Weather in Bogatie Sabi

Russia / Republic of Tatarstan     56°00′29″N   50°26′36″E
temp.,
°C
wind,
m/s
gust,
m/s
humid.,
%
clouds,
%
prec.,
mm/h
press.,
hPa
HPBL,
m
5 march, fri
fri500:00−7w5129378 0.0 996444
03:00−11w479785 0.0 999128
06:00−13wnw339687 0.0 100036
09:00−11nnw259193 0.0 1002166
12:00−8nw238573 0.0 1003254
15:00−8w249037 0.0 1004199
18:00−11sw349522 0.0 100659
21:00−11wsw489755 0.1 1008156
6 march, sat
sat600:00−13wsw469878 0.0 1008108
03:00−14sw349785 0.1 101065
06:00−12w3496100 0.9 1010132
09:00−11nnw3694100 1.1 1012346
12:00−11wnw368799 0.1 1013616
15:00−11w4687100 0.1 1013715
18:00−13wsw3497100 0.1 101474
21:00−16wsw339887 0.1 101448
7 march, sun
sun700:00−16wsw229889 0.1 101221
03:00−17wsw229992 0.1 101220
06:00−20wsw2210097 0.0 101120
09:00−16sw239895 0.1 1011104
12:00−13ssw349583 0.0 1010237
15:00−12s369687 0.0 1008265
18:00−15sse489998 0.0 1007130
21:00−11s6129599 0.1 1005399
8 march, mon
mon800:00−9s71394100 0.3 1001553
03:00−9sse71494100 1.3 997743
06:00−7s71494100 1.4 994815
09:00−8sw71291100 2.1 995812
12:00−7sw81390100 0.1 996839
15:00−6ssw81384100 0.3 9961087
18:00−6ssw51195100 0.9 995687
21:00−9sw499694 1.1 996249
9 march, tue
tue900:00−10wsw5119599 0.2 997371
03:00−10wsw5119599 0.5 999362
06:00−12w4897100 0.1 1001209
09:00−12wnw4694100 0.3 1003327
12:00−11wnw4691100 0.1 1005509
15:00−11wnw4790100 0.2 1007665
18:00−14wnw3496100 0.1 100979
21:00−15wnw249696 0.1 101074